www.pogodaiklimat.ru

Погода и климат >> Архив погоды >> Сенегал >> Kedougou


ПОГОДА в Kedougou

  • Прогноз погоды в Kedougou
  • Монитор погоды в Kedougou
  • Климат города

АРХИВ ПОГОДЫ в Kedougou

Время (UTC), дата Ветер
(напр.,м/с)
 
Видим.   Явления Облачность Т
(С)
Тd
(С)
f
(%)
Тe
(С)
Тes
(С)
Комфортность P
(гПа)
Po
(гПа)
Тmin
(С)
Tmax
(С)
R
(мм)
R24
(мм)
S
(см)
06 13.07 З 2 10 км 8/8 400 м
[Sc]
+23.5 +22.9 96 +31 +31 очень
душно
1011.9 993.2 +25.5
09 13.07 ЮЗ 3 10 км 9/8 400 м
[Sc Ci sp]
+28.0 +23.7 77 +38 +39 очень
душно
1012.9 994.2
12 13.07 штиль 0 8000 м гроза, ливневой дождь 10/6 400 м
[Cb cap As op]
+25.0 +22.8 88 +33 +35 очень
душно
1014.1 995.1 3
15 13.07 штиль 0 10 км {гроза, дождь} 9/3 400 м
[Sc Ci sp]
+25.5 +23.3 88 +34 +47 очень
душно
1011.5 992.7
18 13.07 С 1 10 км {гроза, дождь} 9/3 450 м
[Cu med, cong Ac trans Ci sp]
+27.5 +24.7 85 +39 +40 очень
душно
1011.0 992.2 +28.5 1
06 14.07 штиль 0 10 км 8/0
[Ac lent]
+25.0 +23.6 92 +34 +34 очень
душно
1012.0 993.2 +24.0 4
09 14.07 Ю 1 10 км 9/4 400 м
[Sc Ac trans]
+27.0 +24.2 85 +38 +40 очень
душно
1012.7 993.8
15 14.07 СЗ 1 10 км 8/8 600 м
[Cu med, cong]
+34.0 +25.0 59 +47 +51 опасность
перегрева
1010.3 991.7
18 14.07 СЗ 2 10 км 8/4 600 м
[Cu med, cong Ci sp]
+33.5 +25.2 62 +48 +48 опасность
перегрева
1009.2 990.5 +35.5
06 15.07 ЮЗ 1 10 км 8/8 400 м
[Sc]
+25.5 +23.3 88 +34 +34 очень
душно
1011.5 992.8 +24.0
09 15.07 З 2 10 км слабый ливневой дождь, в посл. час гроза 9/6 400 м
[Sc Ac trans Ci sp]
+27.5 +23.9 81 +38 +40 очень
душно
1013.0 994.3
12 15.07 ЮЗ 2 10 км {гроза, дождь} 8/5 450 м
[Cu med, cong Ci sp]
+30.7 +23.8 67 +42 +52 опасность
перегрева
1011.7 993.0 0.0
15 15.07 З 2 10 км 9/4 450 м
[Cu med, cong Ci sp]
+33.0 +24.6 61 +46 +53 опасность
перегрева
1009.8 991.2
18 15.07 ЮЗ 2 10 км 9/6 450 м
[Cu med, cong Ci sp]
+32.5 +24.8 64 +46 +46 опасность
перегрева
1008.7 990.1 +34.0
03 16.07 З 2 10 км 8/8 400 м
[Sc]
+28.0 +23.7 77 +38 +38 очень
душно
1010.1 991.5
06 16.07 З 1 10 км 5/5 400 м
[Sc]
+26.5 +22.9 81 +35 +35 очень
душно
1010.5 991.9 +26.0
09 16.07 ЮЗ 2 10 км 4/4 400 м
[Cu med, cong]
+28.0 +22.9 74 +37 +42 очень
душно
1011.8 993.2
12 16.07 Ю 2 10 км 8/8 450 м
[Cu med, cong]
+31.5 +22.9 60 +41 +45 опасность
перегрева
1011.5 992.8
15 16.07 ЮЗ 2 10 км 8/8 450 м
[Cu med, cong]
+33.5 +23.3 55 +44 +47 опасность
перегрева
1009.1 990.5
18 16.07 З 2 10 км гроза без осадков 10/4 450 м
[Cb cap Cs]
+33.5 +23.6 56 +44 +45 опасность
перегрева
1008.0 989.5 +35.0
03 17.07 штиль 0 10 км 8/0
[Ci sp]
+24.8 +23.6 93 +34 +34 очень
душно
1010.7 992.1
06 17.07 Ю 1 10 км 6/0
[Ac trans Ci sp]
+24.6 +23.3 92 +33 +33 очень
душно
1010.8 992.1 +22.8 28
12 17.07 ЮЗ 2 10 км 9/8 450 м
[Cu med, cong Ac trans Ci sp]
+31.5 +23.7 63 +43 +46 опасность
перегрева
1012.2 993.4
15 17.07 З 1 10 км 9/6 480 м
[Cb cap Ci sp]
+32.5 +24.1 61 +44 +51 опасность
перегрева
1009.4 990.7
18 17.07 Ю 2 10 км гроза без осадков 10/4 480 м
[Cb cap As op]
+29.0 +24.0 74 +40 +40 очень
душно
1009.8 991.0 +35.0
03 18.07 ЮЗ 1 10 км 6/0
[Ac trans Ci sp]
+25.5 +23.3 88 +34 +34 очень
душно
1011.2 992.5
06 18.07 Ю 1 10 км 8/3 480 м
[Cu med, cong Ac trans Ci sp]
+25.0 +23.6 92 +34 +34 очень
душно
1012.0 993.2 +24.3 0.2
09 18.07 Ю 2 10 км 8/4 450 м
[Cu Sc Ac trans]
+27.0 +23.4 81 +37 +39 очень
душно
1012.5 993.7
12 18.07 З 3 10 км 8/4 450 м
[Cu Sc Ci sp]
+30.5 +23.4 66 +41 +50 опасность
перегрева
1012.7 994.0
15 18.07 З 2 10 км гроза без осадков 8/8 480 м
[Cb cap Ac trans]
+32.0 +23.0 59 +42 +45 опасность
перегрева
1011.6 991.9
18 18.07 0 10 км гроза без осадков 8/3 480 м
[Cb cap Ac As]
+28.5 +23.5 74 1009.7 990.9 +37.0
03 19.07 штиль 0 3000 м слабый дождь 10/0
[As op]
+24.0 +22.5 91 +31 +31 очень
душно
1012.1 993.3
06 19.07 штиль 0 3500 м слабый дождь 10/4 240 м
[St As op]
+23.8 +22.6 93 +31 +31 очень
душно
1012.3 993.4 +23.0 21
09 19.07 штиль 0 6000 м в посл. час дождь 9/5 240 м
[Cu med, cong Ac As]
+24.0 +22.5 91 +31 +34 очень
душно
1012.7 993.8
12 19.07 Ю 2 10 км {дождь} 9/6 480 м
[Cu med, cong Ac trans]
+29.5 +23.0 68 +39 +44 очень
душно
1012.4 993.6 0.4
15 19.07 З 2 10 км 9/4 480 м
[Cu Sc Ac trans]
+30.5 +23.0 64 +40 +46 очень
душно
1010.3 991.5
18 19.07 ЮЗ 1 10 км гроза без осадков {дождь} 9/4 450 м
[Cb cap Ac As]
+27.0 +14.0 45 +29 +30 жарко 1010.1 991.2 +33.2 9

 

Местоположение метеостанции Kedougou (Сенегал): широта 12.57 долгота -12.21 высота над уровнем моря 167 м.

В архиве по умолчанию представлена погода в Kedougou за последнюю неделю. Архивные данные за месяц целиком и за предыдущие месяцы, начиная с января 2011 года, Вы можете получить, выбрав интересующий диапазон дат из раскрывающегося списка и нажав кнопку "Ввод!".


*Определитесь, кто Вы:
робот инопланетянин человек

Внимание! Время в таблицах - всемирное. Для получения местного времени необходимо прибавить поправку, которая в Kedougou равна 0 ч.

Смотрите также архив погоды в соседних городах и на ближайших метеорологических станциях:

Погода в Kenieba (Мали) (111 км)
Погода в Koundara (Гвинея) (141 км)
Погода в Fatoto (Гамбия) (195 км)
Погода в Tambacounda (Сенегал) (208 км)
Погода в Kayes (Мали) (223 км)
Погода в Basse (Гамбия) (230 км)
Погода в Bafata (Гвинея-Биссау) (271 км)
Погода в Kindia (Гвинея) (289 км)
Погода в Georgetown (Гамбия) (297 км)
Погода в Kolda (Сенегал) (300 км)

Пояснения к столбцам:

Ветер - указаны скорость ветра в м/с - средняя за 10 мин, порывы в срок и между сроками (в фигурных скобках) и направление, откуда дует ветер: С - северный, СВ - северо-восточный, В - восточный, ЮВ - юго-восточный, Ю - южный, ЮЗ - юго-западный, З - западный, СЗ - северо-западный.
Видимость - горизонтальная дальность видимости в метрах или километрах. При видимости от 1 до 10 км при отсутствии осадков обычно наблюдается дымка, при ухудшении видимости до 1 км и менее - туман. В сухую погоду видимость может ухудшаться дымом, пылью или мглою.
Явления - указаны атмосферные явления, наблюдавшиеся в срок или в последний час перед сроком; фигурными скобками обозначены явления, наблюдавшиеся между сроками (за 1-3 часа до срока); квадратными скобками обозначены град или гололедные отложения с указанием их диаметра в мм.
Облачность - указаны через наклонную черту общая и нижняя облачность в баллах и высота нижней границы облаков в метрах; квадратными скобками обозначены формы облаков: Ci - перистые, Cs - перисто-слоистые, Cc - перисто-кучевые, Ac - высококучевые, As - высокослоистые, Sc - слоисто-кучевые, Ns - слоисто-дождевые, Cu - кучевые, Cb - кучево-дождевые. Подробнее классификацию облаков см. в Атласе облаков (PDF).
T - Температура воздуха - температура, измеренная на высоте 2 м над землей.
Td - Температура точки росы - температура, при понижении до которой содержащийся в воздухе водяной пар достигнет насыщения.
f - Относительная влажность воздуха - влажноcть воздуха, измеренная на высоте 2 м над землей.
Te - Эффективная температура - температура, которую ощущает одетый по сезону человек в тени. Характеристика душности погоды. При расчете учитывается влияние влажности воздуха и скорости ветра на теплоощущения человека.
Tes - Эффективная температура на солнце - температура, которую ощущает человек, с поправкой на солнечный нагрев. Характеристика знойности погоды. Зависит от высоты солнца над горизонтом, облачности и скорости ветра. Ночью, в пасмурную погоду, а также при ветре 12 м/с и более поправка равна нулю.
P - Атмосферное давление - приведенное к уровню моря атмосферное давление.
Po - Атмосферное давление - измеренное на уровне метеостанции атмосферное давление.
Tmin - Минимальная температура - минимум температуры воздуха на высоте 2 м над землей.
Tmax - Максимальная температура - максимум температуры воздуха на высоте 2 м над землей.
R - Количество осадков - Количество выпавших осадков за период времени, мм. При наведении курсора мыши на число - период времени, за который выпало указанное количество осадков.
R24 - Количество осадков - Количество выпавших осадков за 24 часа, мм.
S - Снежный покров - Высота снежного покрова, см. При наведении курсора мыши на число - состояние снежного покрова и степень покрытия местности в баллах.